#timestamp,LO_Frequency,Hit,StdDev 
1646949615.9,286047000.5,P
1646949635.7,286046999.3,N
1646949655.5,286046998.4,N
1646949675.4,286046998.5,N
1646949695.2,286046998.6,N
1646949715.1,286046998.4,N
1646949716.0,286046998.4,N
1646949735.8,286046999.4,N
1646949755.6,286046999.4,N
1646949775.5,286046999.5,N
1646949795.3,286046998.4,N
1646949815.1,286047002.8,Y
1646949835.9,286047003.1,P
1646949855.7,286047003.6,N
1646949875.6,286047003.9,N
1646949895.4,286047003.9,N
1646949915.2,286047002.8,N
1646949935.1,286047001.0,N
1646949936.0,286047001.0,N
1646949985.8,286046999.7,E
1646949995.8,286047002.8,N
1646950015.6,286047002.6,P
1646950035.4,286047004.0,P
1646950055.3,286047001.3,N
1646950075.1,286047001.7,N
1646950095.9,286047004.2,Y
1646950115.7,286047000.9,P
1646950135.5,286047002.3,N
1646950155.7,286047000.5,N
1646950175.5,286047000.7,N
1646950195.4,286047000.3,N
1646950215.2,286047000.2,N
1646950235.0,286047002.3,N
1646950235.9,286047002.3,N
1646950255.8,286047003.1,Y
1646950275.6,286047002.6,P
1646950295.5,286047001.2,N
1646950315.3,286046998.7,N
1646950335.1,286046996.7,N
1646950355.9,286046996.7,N
1646950375.7,286046996.6,N
1646950395.5,286046996.7,N
1646950415.4,286046994.9,N
1646950435.2,286046997.3,N
1646950455.1,286046999.2,N
1646950456.0,286046999.2,N
1646950475.8,286046998.7,N
1646950495.6,286046998.4,N
1646950515.5,286046998.5,N
1646950535.3,286046999.9,N
1646950555.1,286046998.2,N
1646950575.9,286046999.3,N
1646950595.7,286046998.4,N
1646950615.6,286046996.7,N
1646950635.4,286046997.1,N
1646950655.2,286046999.0,N
1646950675.1,286047000.9,N
1646950676.0,286047000.9,N
1646950695.8,286047000.6,N
1646950715.7,286046999.9,N
1646950735.5,286047000.6,N
1646950755.3,286046998.1,N
1646950775.2,286046998.3,N
1646950795.9,286046999.4,N
1646950815.7,286046998.4,N
1646950835.6,286046999.3,N
1646950855.4,286046999.0,N
1646950875.3,286046998.1,N
1646950895.1,286047000.8,N
1646950896.0,286047000.8,N
1646950915.8,286047001.2,N
1646950935.7,286046998.4,N
1646950955.5,286047000.9,N
1646950975.3,286047002.5,N
1646950995.2,286046998.1,N
1646951015.0,286047002.5,N
1646951015.9,286047002.5,N
1646951035.8,286047000.5,N
1646951055.6,286046999.9,N
1646951075.4,286046998.8,N
1646951095.3,286047002.1,N
1646951115.1,286047000.4,N
1646951135.8,286047001.2,N
1646951155.7,286046999.9,N
1646951175.5,286046998.1,N
1646951195.4,286046998.4,N
1646951215.2,286046998.5,N
1646951235.0,286046998.2,N
1646951235.9,286046998.2,N
1646951255.8,286047002.1,N
1646951275.6,286046999.7,N
1646951295.4,286047001.2,N
1646951315.3,286046998.5,N
1646951335.1,286047000.7,N
1646951355.9,286046999.0,N
1646951375.7,286046999.5,N
1646951395.5,286046999.3,N
1646951415.4,286046998.6,N
1646951435.2,286046998.4,N
1646951455.0,286046996.9,N
1646951456.0,286046996.9,N
1646951475.8,286046999.3,N
1646951495.6,286047001.2,N
1646951515.5,286046999.4,N
1646951535.3,286046999.5,N
1646951555.1,286046999.1,N
1646951575.9,286046998.4,N
1646951595.7,286046999.4,N
1646951615.6,286046996.7,N
1646951635.4,286046997.2,N
1646951655.2,286046998.5,N
1646951675.1,286047002.6,N
1646951676.0,286047002.6,N
1646951695.8,286046998.3,N
1646951715.7,286046998.9,N
1646951735.5,286046998.8,N
1646951755.3,286046999.0,N
1646951775.2,286046999.4,N
1646951795.0,286046998.1,N
1646951795.9,286046998.1,N
1646951815.7,286046999.4,N
1646951835.6,286046999.3,N
1646951855.4,286046997.3,N
1646951875.3,286046995.6,Y
1646951895.1,286046997.7,P
1646951915.8,286046996.9,P
1646951935.7,286046999.0,N
1646951955.5,286046999.1,N
1646951975.4,286046998.9,N
1646951995.2,286046995.0,Y
1646952015.0,286046999.0,P
1646952015.9,286046999.0,P
1646952035.8,286046997.4,P
1646952055.6,286046997.2,Y
1646952075.5,286046998.1,P
1646952095.3,286047002.6,P
1646952115.1,286046999.7,N
1646952135.9,286047000.0,N
1646952155.7,286047000.0,N
1646952175.5,286046999.9,N
1646952195.4,286047002.1,N
1646952215.2,286047002.4,N
1646952235.1,286047000.2,N
1646952236.0,286047000.2,N
1646952255.8,286046999.9,N
1646952275.6,286047000.8,N
1646952295.5,286046999.9,N
1646952315.3,286046998.6,N
1646952335.1,286047000.9,N
1646952355.9,286047002.7,N
1646952375.7,286047004.0,N
1646952395.6,286047003.4,N
1646952415.4,286047001.9,N
1646952435.2,286047003.8,N
1646952455.1,286047004.1,N
1646952456.0,286047004.1,N
1646952475.8,286047002.0,N
1646952495.6,286047002.8,N
1646952515.5,286047001.0,N
1646952535.3,286047002.8,N
1646952555.2,286047001.8,N
1646952575.9,286047002.8,N
1646952595.7,286047002.7,N
1646952615.6,286047002.1,N
1646952635.4,286047002.6,N
1646952655.2,286047001.3,N
1646952675.1,286047002.4,N
1646952676.0,286047002.4,N
1646952695.8,286047002.3,N
1646952715.7,286047001.6,N
1646952735.5,286047001.4,N
1646952755.3,286047002.1,N
1646952775.2,286047002.1,N
1646952795.0,286047003.2,N
1646952795.9,286047003.2,N
1646952815.8,286047003.7,Y
1646952835.6,286047003.8,P
1646952855.4,286047003.0,P
1646952875.3,286047001.9,N
1646952895.1,286047002.2,N
1646952915.9,286047002.4,Y
1646952935.7,286046999.4,P
1646952955.5,286046999.4,N
1646952975.4,286046997.3,N
1646952995.2,286046997.0,N
1646953015.0,286046997.2,N
1646953015.9,286046997.2,N
1646953035.8,286046999.3,N
1646953055.6,286046998.8,N
1646953075.5,286046998.9,N
1646953095.3,286047001.1,N
1646953115.1,286047001.1,N
1646953135.9,286047000.5,N
1646953155.7,286047000.3,N
1646953175.5,286046998.6,N
1646953195.4,286046998.4,N
